Date String (YYYY-MM-DD hh:mm:ss) UTC,Instrument flags,absolute air pressure of the measurement (hPa),sample flow rate (lpm),inlet stack bypass flow (lpm),air temperature of the measurement (°C),ambient temperature measured by the external sensor (°C),aerosol sample conditioner tube jacket temperature (°C),OPC LED temperature (°C),internal box temperature (°C),relative humidity of the measurement (%),span deviation,mass concentration of particles derived from Lorenz-Mie calculation of OPC scattering (μg/m³),mass concentration of particles derived from Lorenz-Mie calculation of OPC scattering (μg/m³),mass concentration of particles derived from Lorenz-Mie calculation of OPC scattering (μg/m³)
DateTimeUTC,F1_M11,P_M11,Q1_M11,Q2_M11,T1_M11,T2_M11,T3_M11,T4_M11,T5_M11,U1_M11,ZSPAN_M11,X0_M11,X2_M11,X1_M11
2024-01-01 20:00:00,SystemResetWarning,0829.7,4.99,000.00,024.4,023.8,000.0,032.5,025.9,13.0,0000.0,0008.58,0004.81,0004.55
2024-01-01 20:01:00,SystemResetWarning,0829.7,5.00,000.00,024.4,023.8,000.0,032.5,025.9,13.2,0000.0,0008.55,0004.78,0004.54
2024-01-01 20:02:00,SystemResetWarning,0829.7,5.01,000.00,024.4,023.9,000.0,032.6,026.0,12.9,0000.0,0008.46,0004.77,0004.53
2024-01-01 20:03:00,SystemResetWarning,0829.7,5.01,000.00,024.4,023.9,000.0,032.6,026.0,12.6,0000.0,0008.48,0004.79,0004.53
2024-01-01 20:04:00,SystemResetWarning,0829.7,5.01,000.00,024.5,023.9,000.0,032.6,026.0,12.6,0000.0,0008.43,0004.80,0004.54
2024-01-01 20:05:00,SystemResetWarning,0829.7,4.99,000.00,024.5,023.9,000.0,032.6,026.0,12.8,0000.0,0009.09,0004.81,0004.54
2024-01-01 20:06:00,SystemResetWarning,0829.7,4.99,000.00,024.5,023.9,000.0,032.6,026.0,12.8,0000.0,0009.27,0004.77,0004.52
2024-01-01 20:07:00,SystemResetWarning,0829.7,5.00,000.00,024.5,024.0,000.0,032.6,026.0,12.5,0000.0,0009.21,0004.72,0004.50
2024-01-01 20:08:00,SystemResetWarning,0829.7,5.00,000.00,024.5,024.0,000.0,032.7,026.1,12.3,0000.0,0009.12,0004.66,0004.46
2024-01-01 20:09:00,SystemResetWarning,0829.7,5.00,000.00,024.6,024.0,000.0,032.7,026.1,12.3,0000.0,0009.12,0004.64,0004.41
2024-01-01 20:10:00,SystemResetWarning,0829.7,5.01,000.00,024.6,024.0,000.0,032.7,026.1,12.2,0000.0,0009.01,0004.65,0004.39
2024-01-01 20:11:00,SystemResetWarning,0829.7,5.00,000.00,024.6,024.0,000.0,032.7,026.1,12.0,0000.0,0008.18,0004.63,0004.37
2024-01-01 20:12:00,SystemResetWarning,0829.6,4.99,000.00,024.6,024.0,000.0,032.7,026.1,11.9,0000.0,0008.15,0004.61,0004.36
2024-01-01 20:13:00,SystemResetWarning,0829.6,4.99,000.00,024.6,024.1,000.0,032.8,026.1,11.9,0000.0,0008.14,0004.59,0004.32
2024-01-01 20:14:00,SystemResetWarning,0829.6,5.00,000.00,024.6,024.1,000.0,032.8,026.1,11.9,0000.0,0008.06,0004.50,0004.23
2024-01-01 20:15:00,SystemResetWarning,0829.6,5.01,000.00,024.7,024.1,000.0,032.8,026.2,11.9,0000.0,0008.37,0004.39,0004.15
2024-01-01 20:16:00,SystemResetWarning,0829.6,5.00,000.00,024.7,024.1,000.0,032.8,026.2,12.0,0000.0,0007.68,0004.31,0004.07
2024-01-01 20:17:00,SystemResetWarning,0829.6,5.00,000.00,024.7,024.1,000.0,032.8,026.2,11.9,0000.0,0007.39,0004.26,0004.00
2024-01-01 20:18:00,SystemResetWarning,0829.5,5.00,000.00,024.7,024.1,000.0,032.8,026.2,11.9,0000.0,0007.26,0004.18,0003.91
2024-01-01 20:19:00,SystemResetWarning,0829.5,5.00,000.00,024.7,024.2,000.0,032.9,026.3,11.9,0000.0,0007.12,0004.10,0003.83
2024-01-01 20:20:00,SystemResetWarning,0829.6,5.00,000.00,024.7,024.2,000.0,032.9,026.3,11.9,0000.0,0006.85,0003.97,0003.72
2024-01-01 20:21:00,SystemResetWarning,0829.6,5.00,000.00,024.8,024.2,000.0,032.9,026.3,12.0,0000.0,0006.68,0003.85,0003.62
2024-01-01 20:22:00,SystemResetWarning,0829.6,5.01,000.00,024.8,024.2,000.0,032.9,026.3,11.9,0000.0,0006.61,0003.76,0003.53
2024-01-01 20:23:00,SystemResetWarning,0829.5,5.00,000.00,024.8,024.2,000.0,032.9,026.3,11.9,0000.0,0006.47,0003.68,0003.43
2024-01-01 20:24:00,SystemResetWarning,0829.5,4.99,000.00,024.8,024.3,000.0,032.9,026.3,11.9,0000.0,0006.21,0003.57,0003.34
2024-01-01 20:25:00,SystemResetWarning,0829.5,4.99,000.00,024.9,024.3,000.0,033.0,026.3,11.7,0000.0,0006.07,0003.50,0003.27
2024-01-01 20:26:00,SystemResetWarning,0829.5,5.00,000.00,024.9,024.3,000.0,033.0,026.3,11.4,0000.0,0005.07,0003.44,0003.21
2024-01-01 20:27:00,SystemResetWarning,0829.5,4.99,000.00,024.9,024.3,000.0,033.0,026.3,11.5,0000.0,0004.70,0003.35,0003.13
2024-01-01 20:28:00,SystemResetWarning,0829.5,5.00,000.00,024.9,024.3,000.0,033.0,026.4,11.7,0000.0,0004.59,0003.25,0002.98
2024-01-01 20:29:00,SystemResetWarning,0829.5,5.02,000.00,024.9,024.3,000.0,033.0,026.4,11.6,0000.0,0004.55,0003.15,0002.84
2024-01-01 20:30:00,SystemResetWarning,0829.6,5.00,000.00,024.9,024.4,000.0,033.1,026.4,11.5,0000.0,0005.21,0003.09,0002.74
2024-01-01 20:31:00,SystemResetWarning,0829.6,5.00,000.00,025.0,024.4,000.0,033.1,026.4,11.2,0000.0,0005.06,0003.02,0002.68
2024-01-01 20:32:00,SystemResetWarning,0829.5,5.00,000.00,025.0,024.4,000.0,033.1,026.5,11.1,0000.0,0005.06,0002.98,0002.64
2024-01-01 20:33:00,SystemResetWarning,0829.6,5.00,000.00,025.0,024.4,000.0,033.1,026.5,11.2,0000.0,0005.00,0002.99,0002.61
2024-01-01 20:34:00,SystemResetWarning,0829.6,5.00,000.00,025.0,024.4,000.0,033.1,026.5,11.3,0000.0,0005.40,0002.98,0002.60
2024-01-01 20:35:00,SystemResetWarning,0829.6,5.00,000.00,025.0,024.4,000.0,033.1,026.5,11.2,0000.0,0005.92,0002.94,0002.58
2024-01-01 20:36:00,SystemResetWarning,0829.6,5.01,000.00,025.0,024.5,000.0,033.2,026.5,11.1,0000.0,0006.15,0002.94,0002.59
2024-01-01 20:37:00,SystemResetWarning,0829.6,5.00,000.00,025.1,024.5,000.0,033.2,026.6,10.9,0000.0,0006.37,0002.97,0002.59
2024-01-01 20:38:00,SystemResetWarning,0829.6,5.00,000.00,025.1,024.5,000.0,033.2,026.6,10.8,0000.0,0006.46,0003.00,0002.58
2024-01-01 20:39:00,SystemResetWarning,0829.6,5.00,000.00,025.1,024.5,000.0,033.2,026.6,10.7,0000.0,0006.38,0003.00,0002.57
2024-01-01 20:40:00,SystemResetWarning,0829.6,5.00,000.00,025.1,024.5,000.0,033.2,026.6,10.7,0000.0,0006.31,0003.04,0002.59
2024-01-01 20:41:00,SystemResetWarning,0829.7,4.99,000.00,025.1,024.6,000.0,033.2,026.6,10.5,0000.0,0005.89,0003.08,0002.62
2024-01-01 20:42:00,SystemResetWarning,0829.7,4.99,000.00,025.1,024.6,000.0,033.3,026.6,10.5,0000.0,0005.60,0003.11,0002.64
2024-01-01 20:43:00,SystemResetWarning,0829.7,4.99,000.00,025.2,024.6,000.0,033.3,026.6,10.5,0000.0,0005.59,0003.11,0002.66
2024-01-01 20:44:00,SystemResetWarning,0829.7,5.00,000.00,025.2,024.6,000.0,033.3,026.7,10.5,0000.0,0005.33,0003.03,0002.64
2024-01-01 20:45:00,SystemResetWarning,0829.7,5.00,000.00,025.2,024.6,000.0,033.3,026.6,10.5,0000.0,0005.63,0002.97,0002.60
2024-01-01 20:46:00,SystemResetWarning,0829.7,5.00,000.00,025.2,024.6,000.0,033.3,026.7,10.5,0000.0,0004.92,0002.97,0002.59
2024-01-01 20:47:00,SystemResetWarning,0829.7,5.01,000.00,025.2,024.6,000.0,033.4,026.7,10.6,0000.0,0004.87,0002.96,0002.54
2024-01-01 20:48:00,SystemResetWarning,0829.7,5.00,000.00,025.2,024.7,000.0,033.4,026.7,10.5,0000.0,0004.55,0002.90,0002.49
2024-01-01 20:49:00,SystemResetWarning,0829.7,5.00,000.00,025.3,024.7,000.0,033.4,026.7,10.5,0000.0,0004.37,0002.80,0002.43
2024-01-01 20:50:00,SystemResetWarning,0829.7,4.99,000.00,025.3,024.7,000.0,033.4,026.7,10.4,0000.0,0004.27,0002.74,0002.40
2024-01-01 20:51:00,SystemResetWarning,0829.7,4.99,000.00,025.3,024.7,000.0,033.4,026.7,10.4,0000.0,0004.13,0002.64,0002.34
2024-01-01 20:52:00,SystemResetWarning,0829.7,5.00,000.00,025.3,024.7,000.0,033.4,026.7,10.5,0000.0,0003.93,0002.55,0002.26
2024-01-01 20:53:00,SystemResetWarning,0829.7,4.99,000.00,025.3,024.7,000.0,033.4,026.7,10.5,0000.0,0003.99,0002.46,0002.19
2024-01-01 20:54:00,SystemResetWarning,0829.7,5.00,000.00,025.3,024.7,000.0,033.5,026.8,10.6,0000.0,0004.03,0002.37,0002.12
2024-01-01 20:55:00,SystemResetWarning,0829.7,5.01,000.00,025.3,024.8,000.0,033.5,026.8,10.7,0000.0,0004.01,0002.34,0002.08
2024-01-01 20:56:00,SystemResetWarning,0829.7,5.00,000.00,025.4,024.8,000.0,033.5,026.8,10.5,0000.0,0003.41,0002.30,0002.04
2024-01-01 20:57:00,SystemResetWarning,0829.7,4.99,000.00,025.4,024.8,000.0,033.5,026.8,10.5,0000.0,0003.17,0002.25,0002.01
2024-01-01 20:58:00,SystemResetWarning,0829.7,4.99,000.00,025.4,024.8,000.0,033.5,026.8,10.5,0000.0,0003.06,0002.21,0002.01
2024-01-01 20:59:00,SystemResetWarning,0829.7,4.99,000.00,025.4,024.8,000.0,033.5,026.9,10.5,0000.0,0003.02,0002.21,0002.02
